| time (UTC) | temp F | wind direction | speed knots | gust knots | rain 1hr in | rain 24hr in | rain mn in | humidity % | barometer mb |
| 20260508213944 | 72 | 149 | 0.0 | 1.7 | 0.00 | 0.00 | 0.00 | 30 | 1014.9 |
| 20260508213441 | 72 | 212 | 1.7 | 3.5 | 0.00 | 0.00 | 0.00 | 29 | 1014.8 |
| 20260508212937 | 73 | 110 | 0.0 | 1.7 | 0.00 | 0.00 | 0.00 | 29 | 1015.1 |
| 20260508212434 | 73 | 129 | 0.9 | 2.6 | 0.00 | 0.00 | 0.00 | 29 | 1015.0 |
| 20260508211929 | 73 | 156 | 0.9 | 1.7 | 0.00 | 0.00 | 0.00 | 29 | 1015.1 |
| 20260508211425 | 73 | 185 | 4.3 | 5.2 | 0.00 | 0.00 | 0.00 | 26 | 1015.0 |
| 20260508210923 | 73 | 138 | 0.9 | 2.6 | 0.00 | 0.00 | 0.00 | 27 | 1014.9 |
| 20260508210419 | 72 | 316 | 0.9 | 1.7 | 0.00 | 0.00 | 0.00 | 29 | 1014.9 |
| 20260508205915 | 73 | 163 | 1.7 | 2.6 | 0.00 | 0.00 | 0.00 | 34 | 1014.9 |
| 20260508205413 | 72 | 128 | 0.0 | 0.9 | 0.00 | 0.00 | 0.00 | 38 | 1014.8 |
| 20260508204909 | 72 | 207 | 1.7 | 2.6 | 0.00 | 0.00 | 0.00 | 34 | 1014.8 |
| 20260508204406 | 72 | 246 | 1.7 | 2.6 | 0.00 | 0.00 | 0.00 | 33 | 1014.9 |
| 20260508203902 | 72 | 163 | 1.7 | 7.0 | 0.00 | 0.00 | 0.00 | 31 | 1015.1 |
| 20260508203358 | 73 | 134 | 0.9 | 3.5 | 0.00 | 0.00 | 0.00 | 34 | 1015.1 |
| 20260508202854 | 73 | 152 | 0.9 | 3.5 | 0.00 | 0.00 | 0.00 | 35 | 1015.1 |
| 20260508202351 | 72 | 194 | 0.9 | 2.6 | 0.00 | 0.00 | 0.00 | 36 | 1015.0 |
| 20260508201849 | 72 | 141 | 0.0 | 3.5 | 0.00 | 0.00 | 0.00 | 33 | 1015.1 |
| 20260508201345 | 71 | 137 | 0.0 | 3.5 | 0.00 | 0.00 | 0.00 | 34 | 1014.9 |
| 20260508200842 | 72 | 231 | 1.7 | 3.5 | 0.00 | 0.00 | 0.00 | 30 | 1015.2 |
| 20260508200338 | 72 | 216 | 1.7 | 2.6 | 0.00 | 0.00 | 0.00 | 33 | 1015.4 |
| 20260508195834 | 72 | 134 | 0.0 | 0.9 | 0.00 | 0.00 | 0.00 | 36 | 1015.4 |
| 20260508195331 | 71 | 125 | 0.0 | 0.9 | 0.00 | 0.00 | 0.00 | 35 | 1015.5 |
| 20260508194827 | 71 | 159 | 1.7 | 1.7 | 0.00 | 0.00 | 0.00 | 35 | 1015.3 |
| 20260508194325 | 72 | 129 | 0.9 | 1.7 | 0.00 | 0.00 | 0.00 | 32 | 1015.7 |
| 20260508193821 | 72 | 211 | 3.5 | 3.5 | 0.00 | 0.00 | 0.00 | 33 | 1016.0 |
| 20260508193318 | 72 | 137 | 0.0 | 1.7 | 0.00 | 0.00 | 0.00 | 33 | 1016.3 |
| 20260508192814 | 71 | 114 | 0.9 | 1.7 | 0.00 | 0.00 | 0.00 | 32 | 1016.3 |
| 20260508192312 | 72 | 344 | 0.9 | 2.6 | 0.00 | 0.00 | 0.00 | 32 | 1016.5 |
| 20260508191809 | 72 | 106 | 0.0 | 2.6 | 0.00 | 0.00 | 0.00 | 29 | 1016.5 |
| 20260508191306 | 71 | 182 | 0.9 | 2.6 | 0.00 | 0.00 | 0.00 | 32 | 1016.8 |
| 20260508190803 | 71 | 123 | 0.0 | 5.2 | 0.00 | 0.00 | 0.00 | 38 | 1016.8 |
| 20260508190259 | 71 | 202 | 1.7 | 2.6 | 0.00 | 0.00 | 0.00 | 35 | 1016.7 |
| 20260508185755 | 72 | 208 | 2.6 | 3.5 | 0.00 | 0.00 | 0.00 | 30 | 1016.9 |
| 20260508185253 | 71 | 319 | 1.7 | 1.7 | 0.00 | 0.00 | 0.00 | 35 | 1017.1 |
| 20260508184750 | 70 | 181 | 0.9 | 5.2 | 0.00 | 0.00 | 0.00 | 32 | 1017.1 |
| 20260508184247 | 70 | 212 | 2.6 | 5.2 | 0.00 | 0.00 | 0.00 | 33 | 1016.9 |
| 20260508183744 | 71 | 127 | 0.9 | 3.5 | 0.00 | 0.00 | 0.00 | 31 | 1017.0 |
| 20260508183240 | 70 | 230 | 0.0 | 1.7 | 0.00 | 0.00 | 0.00 | 32 | 1017.2 |
| 20260508182737 | 71 | 222 | 2.6 | 3.5 | 0.00 | 0.00 | 0.00 | 30 | 1017.4 |
| 20260508182234 | 70 | 133 | 0.0 | 0.9 | 0.00 | 0.00 | 0.00 | 32 | 1017.3 |
| 20260508181729 | 69 | 113 | 0.9 | 3.5 | 0.00 | 0.00 | 0.00 | 36 | 1017.4 |
| 20260508181226 | 69 | 216 | 2.6 | 7.0 | 0.00 | 0.00 | 0.00 | 31 | 1017.2 |
| 20260508180723 | 69 | 158 | 1.7 | 3.5 | 0.00 | 0.00 | 0.00 | 34 | 1017.4 |
| 20260508180220 | 69 | 233 | 0.9 | 1.7 | 0.00 | 0.00 | 0.00 | 39 | 1017.3 |
| 20260508175716 | 69 | 157 | 0.9 | 5.2 | 0.00 | 0.00 | 0.00 | 38 | 1017.4 |
| 20260508175213 | 69 | 109 | 0.0 | 6.1 | 0.00 | 0.00 | 0.00 | 31 | 1017.5 |
| 20260508174712 | 69 | 262 | 2.6 | 3.5 | 0.00 | 0.00 | 0.00 | 34 | 1017.4 |
| 20260508174208 | 69 | 145 | 0.9 | 1.7 | 0.00 | 0.00 | 0.00 | 39 | 1017.5 |
| 20260508173704 | 70 | 157 | 1.7 | 5.2 | 0.00 | 0.00 | 0.00 | 34 | 1017.6 |
| 20260508173200 | 69 | 31 | 1.7 | 3.5 | 0.00 | 0.00 | 0.00 | 34 | 1017.8 |
| 20260508172658 | 70 | 224 | 0.9 | 2.6 | 0.00 | 0.00 | 0.00 | 33 | 1017.7 |
| 20260508172154 | 69 | 117 | 0.9 | 3.5 | 0.00 | 0.00 | 0.00 | 37 | 1018.0 |
| 20260508171651 | 68 | 219 | 1.7 | 2.6 | 0.00 | 0.00 | 0.00 | 33 | 1017.9 |
| 20260508171147 | 69 | 76 | 0.9 | 2.6 | 0.00 | 0.00 | 0.00 | 35 | 1018.1 |
| 20260508170644 | 68 | 126 | 0.9 | 0.9 | 0.00 | 0.00 | 0.00 | 40 | 1018.3 |
| 20260508170142 | 68 | 353 | 1.7 | 2.6 | 0.00 | 0.00 | 0.00 | 34 | 1018.5 |
| 20260508165639 | 69 | 143 | 0.9 | 3.5 | 0.00 | 0.00 | 0.00 | 33 | 1018.6 |
| 20260508165136 | 69 | 109 | 0.0 | 1.7 | 0.00 | 0.00 | 0.00 | 34 | 1018.3 |
| 20260508164632 | 68 | 113 | 0.0 | 0.9 | 0.00 | 0.00 | 0.00 | 37 | 1018.6 |
| 20260508164129 | 67 | 343 | 2.6 | 2.6 | 0.00 | 0.00 | 0.00 | 37 | 1018.7 |
| 20260508163627 | 68 | 186 | 2.6 | 3.5 | 0.00 | 0.00 | 0.00 | 36 | 1018.8 |
| 20260508163124 | 67 | 98 | 0.9 | 1.7 | 0.00 | 0.00 | 0.00 | 36 | 1018.9 |
| 20260508162620 | 66 | 356 | 0.9 | 2.6 | 0.00 | 0.00 | 0.00 | 37 | 1019.2 |
| 20260508162118 | 66 | 145 | 0.9 | 2.6 | 0.00 | 0.00 | 0.00 | 35 | 1019.2 |
| 20260508161614 | 66 | 160 | 0.9 | 5.2 | 0.00 | 0.00 | 0.00 | 45 | 1019.2 |
| 20260508161112 | 68 | 227 | 1.7 | 2.6 | 0.00 | 0.00 | 0.00 | 33 | 1019.3 |
| 20260508160610 | 67 | 137 | 0.0 | 1.7 | 0.00 | 0.00 | 0.00 | 38 | 1019.4 |
| 20260508160107 | 66 | 288 | 0.9 | 2.6 | 0.00 | 0.00 | 0.00 | 35 | 1019.5 |
| 20260508155604 | 66 | 129 | 0.0 | 0.9 | 0.00 | 0.00 | 0.00 | 36 | 1019.5 |
| 20260508155100 | 66 | 157 | 0.9 | 1.7 | 0.00 | 0.00 | 0.00 | 34 | 1019.4 |
| 20260508154557 | 66 | 127 | 0.0 | 1.7 | 0.00 | 0.00 | 0.00 | 36 | 1019.5 |
| 20260508154054 | 65 | 13 | 1.7 | 1.7 | 0.00 | 0.00 | 0.00 | 35 | 1019.6 |
| 20260508153551 | 65 | 98 | 0.9 | 2.6 | 0.00 | 0.00 | 0.00 | 37 | 1019.7 |
| 20260508153047 | 65 | 292 | 0.9 | 3.5 | 0.00 | 0.00 | 0.00 | 39 | 1019.7 |
| 20260508152545 | 65 | 105 | 0.0 | 0.9 | 0.00 | 0.00 | 0.00 | 41 | 1019.7 |
| 20260508152040 | 66 | 57 | 0.9 | 1.7 | 0.00 | 0.00 | 0.00 | 38 | 1019.8 |
| 20260508151537 | 65 | 104 | 0.0 | 0.9 | 0.00 | 0.00 | 0.00 | 43 | 1019.8 |
| 20260508151034 | 65 | 70 | 0.9 | 2.6 | 0.00 | 0.00 | 0.00 | 39 | 1019.8 |
| 20260508150531 | 64 | 129 | 0.9 | 1.7 | 0.00 | 0.00 | 0.00 | 47 | 1019.9 |
| 20260508150026 | 65 | 169 | 0.9 | 1.7 | 0.00 | 0.00 | 0.00 | 41 | 1019.7 |
| 20260508145524 | 65 | 115 | 0.9 | 0.9 | 0.00 | 0.00 | 0.00 | 43 | 1020.1 |
| 20260508145020 | 65 | 73 | 1.7 | 1.7 | 0.00 | 0.00 | 0.00 | 37 | 1019.9 |
| 20260508144518 | 65 | 72 | 0.0 | 0.9 | 0.00 | 0.00 | 0.00 | 43 | 1019.7 |
| 20260508144015 | 64 | 130 | 0.9 | 0.9 | 0.00 | 0.00 | 0.00 | 48 | 1019.9 |
| 20260508143513 | 64 | 79 | 0.9 | 0.9 | 0.00 | 0.00 | 0.00 | 50 | 1019.8 |
| 20260508143009 | 64 | 97 | 0.0 | 0.9 | 0.00 | 0.00 | 0.00 | 51 | 1019.9 |
| 20260508142506 | 63 | 86 | 0.0 | 0.9 | 0.00 | 0.00 | 0.00 | 54 | 1020.0 |
| 20260508142002 | 63 | 42 | 0.9 | 0.9 | 0.00 | 0.00 | 0.00 | 57 | 1020.0 |
| 20260508141458 | 62 | 73 | 0.9 | 0.9 | 0.00 | 0.00 | 0.00 | 60 | 1020.1 |
| 20260508140957 | 62 | 84 | 0.0 | 0.9 | 0.00 | 0.00 | 0.00 | 63 | 1020.2 |
| 20260508140454 | 61 | 140 | 0.0 | 0.9 | 0.00 | 0.00 | 0.00 | 62 | 1020.0 |
| 20260508135949 | 60 | 90 | 0.0 | 0.9 | 0.00 | 0.00 | 0.00 | 63 | 1020.1 |
| 20260508135446 | 60 | 69 | 0.9 | 1.7 | 0.00 | 0.00 | 0.00 | 63 | 1020.3 |
| 20260508134942 | 60 | 81 | 0.9 | 2.6 | 0.00 | 0.00 | 0.00 | 66 | 1020.1 |
| 20260508134439 | 60 | 100 | 0.0 | 0.0 | 0.00 | 0.00 | 0.00 | 67 | 1020.1 |
| 20260508133936 | 59 | 99 | 0.0 | 0.9 | 0.00 | 0.00 | 0.00 | 68 | 1020.1 |
| 20260508133433 | 59 | 74 | 0.9 | 0.9 | 0.00 | 0.00 | 0.00 | 69 | 1020.0 |
| 20260508132930 | 59 | 54 | 0.9 | 1.7 | 0.00 | 0.00 | 0.00 | 69 | 1020.1 |
| 20260508132428 | 58 | 63 | 0.9 | 0.9 | 0.00 | 0.00 | 0.00 | 72 | 1020.1 |
| 20260508131924 | 57 | 127 | 0.9 | 1.7 | 0.00 | 0.00 | 0.00 | 73 | 1020.1 |
| 20260508131420 | 56 | 90 | 0.0 | 0.0 | 0.00 | 0.00 | 0.00 | 77 | 1019.9 |
| 20260508130917 | 56 | 113 | 0.0 | 0.9 | 0.00 | 0.00 | 0.00 | 76 | 1019.9 |
| 20260508130414 | 54 | 109 | 0.0 | 0.0 | 0.00 | 0.00 | 0.00 | 80 | 1020.0 |
| 20260508125910 | 53 | 94 | 0.0 | 0.9 | 0.00 | 0.00 | 0.00 | 83 | 1019.9 |
| 20260508125406 | 52 | 71 | 0.9 | 0.9 | 0.00 | 0.00 | 0.00 | 87 | 1020.2 |
| 20260508124904 | 51 | 105 | 0.0 | 0.9 | 0.00 | 0.00 | 0.00 | 91 | 1020.0 |
| 20260508124401 | 50 | 103 | 0.0 | 0.9 | 0.00 | 0.00 | 0.00 | 95 | 1019.9 |
| 20260508123859 | 50 | 104 | 0.0 | 0.9 | 0.00 | 0.00 | 0.00 | 97 | 1019.7 |
| 20260508123357 | 49 | 60 | 1.7 | 1.7 | 0.00 | 0.00 | 0.00 | 97 | 1020.0 |
| 20260508122853 | 48 | 80 | 0.9 | 0.9 | 0.00 | 0.00 | 0.00 | 97 | 1019.9 |
| 20260508122350 | 48 | 98 | 0.0 | 0.0 | 0.00 | 0.00 | 0.00 | 97 | 1019.8 |
| 20260508121847 | 47 | 101 | 0.0 | 0.0 | 0.00 | 0.00 | 0.00 | 97 | 1019.9 |
| 20260508121345 | 46 | 97 | 0.0 | 0.9 | 0.00 | 0.00 | 0.00 | 97 | 1019.8 |
| 20260508120843 | 46 | 97 | 0.0 | 0.9 | 0.00 | 0.00 | 0.00 | 97 | 1019.8 |
| 20260508120341 | 46 | 100 | 0.0 | 0.0 | 0.00 | 0.00 | 0.00 | 97 | 1019.7 |
| 20260508115838 | 45 | 88 | 0.9 | 0.9 | 0.00 | 0.00 | 0.00 | 97 | 1019.7 |
| 20260508115335 | 45 | 106 | 0.0 | 0.0 | 0.00 | 0.00 | 0.00 | 97 | 1019.6 |
| 20260508114832 | 45 | 105 | 0.0 | 0.0 | 0.00 | 0.00 | 0.00 | 97 | 1019.6 |
| 20260508114329 | 44 | 105 | 0.0 | 0.0 | 0.00 | 0.00 | 0.00 | 97 | 1019.3 |
| 20260508113825 | 44 | 111 | 0.0 | 0.0 | 0.00 | 0.00 | 0.00 | 97 | 1019.4 |
| 20260508113324 | 44 | 111 | 0.0 | 0.0 | 0.00 | 0.00 | 0.00 | 97 | 1019.5 |
| 20260508112820 | 43 | 131 | 0.0 | 0.0 | 0.00 | 0.00 | 0.00 | 97 | 1019.3 |
| 20260508112317 | 43 | 131 | 0.0 | 0.0 | 0.00 | 0.00 | 0.00 | 97 | 1019.2 |
| 20260508111813 | 43 | 131 | 0.0 | 0.0 | 0.00 | 0.00 | 0.00 | 97 | 1019.1 |
| 20260508111311 | 43 | 131 | 0.0 | 0.0 | 0.00 | 0.00 | 0.00 | 97 | 1018.9 |
| 20260508110808 | 42 | 131 | 0.0 | 0.0 | 0.00 | 0.00 | 0.00 | 97 | 1019.1 |
| 20260508110305 | 42 | 131 | 0.0 | 0.0 | 0.00 | 0.00 | 0.00 | 97 | 1018.9 |
| 20260508105805 | 42 | 131 | 0.0 | 0.0 | 0.00 | 0.00 | 0.00 | 97 | 1018.8 |
| 20260508105305 | 42 | 131 | 0.0 | 0.0 | 0.00 | 0.00 | 0.00 | 97 | 1018.7 |
| 20260508104759 | 42 | 131 | 0.0 | 0.0 | 0.00 | 0.00 | 0.00 | 97 | 1018.6 |
| 20260508104256 | 42 | 131 | 0.0 | 0.0 | 0.00 | 0.00 | 0.00 | 97 | 1018.7 |
| 20260508103753 | 42 | 131 | 0.0 | 0.0 | 0.00 | 0.00 | 0.00 | 97 | 1018.5 |
| 20260508103250 | 42 | 131 | 0.0 | 0.0 | 0.00 | 0.00 | 0.00 | 97 | 1018.5 |
| 20260508102747 | 42 | 131 | 0.0 | 0.0 | 0.00 | 0.00 | 0.00 | 97 | 1018.5 |
| 20260508102245 | 42 | 132 | 0.0 | 0.0 | 0.00 | 0.00 | 0.00 | 97 | 1018.3 |
| 20260508101742 | 42 | 131 | 0.0 | 0.0 | 0.00 | 0.00 | 0.00 | 97 | 1018.1 |
| 20260508101240 | 42 | 132 | 0.0 | 0.0 | 0.00 | 0.00 | 0.00 | 97 | 1018.1 |
| 20260508100737 | 42 | 132 | 0.0 | 0.0 | 0.00 | 0.00 | 0.00 | 97 | 1018.3 |
| 20260508100235 | 42 | 132 | 0.0 | 0.0 | 0.00 | 0.00 | 0.00 | 97 | 1018.0 |
| 20260508095731 | 42 | 131 | 0.0 | 0.0 | 0.00 | 0.00 | 0.00 | 97 | 1018.1 |
| 20260508095229 | 42 | 132 | 0.0 | 0.0 | 0.00 | 0.00 | 0.00 | 97 | 1018.1 |
| 20260508094725 | 42 | 131 | 0.0 | 0.0 | 0.00 | 0.00 | 0.00 | 97 | 1018.1 |
| 20260508094222 | 42 | 132 | 0.0 | 0.0 | 0.00 | 0.00 | 0.00 | 97 | 1018.1 |
| 20260508093720 | 42 | 132 | 0.0 | 0.0 | 0.00 | 0.00 | 0.00 | 97 | 1018.1 |
| 20260508093217 | 42 | 132 | 0.0 | 0.0 | 0.00 | 0.00 | 0.00 | 97 | 1018.0 |
| 20260508092714 | 43 | 131 | 0.0 | 0.0 | 0.00 | 0.00 | 0.00 | 97 | 1018.0 |
| 20260508092212 | 43 | 132 | 0.0 | 0.0 | 0.00 | 0.00 | 0.00 | 97 | 1017.8 |
| 20260508091709 | 43 | 132 | 0.0 | 0.0 | 0.00 | 0.00 | 0.00 | 97 | 1017.9 |
| 20260508091206 | 43 | 132 | 0.0 | 0.0 | 0.00 | 0.00 | 0.00 | 96 | 1017.8 |
| 20260508090704 | 43 | 132 | 0.0 | 0.0 | 0.00 | 0.00 | 0.00 | 97 | 1017.9 |
| 20260508090201 | 43 | 132 | 0.0 | 0.0 | 0.00 | 0.00 | 0.00 | 96 | 1018.0 |
| 20260508085657 | 43 | 132 | 0.0 | 0.0 | 0.00 | 0.00 | 0.00 | 96 | 1018.0 |
| 20260508085155 | 43 | 132 | 0.0 | 0.0 | 0.00 | 0.00 | 0.00 | 96 | 1017.9 |
| 20260508084651 | 43 | 132 | 0.0 | 0.0 | 0.00 | 0.00 | 0.00 | 96 | 1017.8 |
| 20260508084148 | 43 | 132 | 0.0 | 0.0 | 0.00 | 0.00 | 0.00 | 96 | 1017.9 |
| 20260508083646 | 43 | 132 | 0.0 | 0.0 | 0.00 | 0.00 | 0.00 | 96 | 1017.8 |
| 20260508083143 | 43 | 132 | 0.0 | 0.0 | 0.00 | 0.00 | 0.00 | 96 | 1017.8 |
| 20260508082638 | 43 | 132 | 0.0 | 0.0 | 0.00 | 0.00 | 0.00 | 96 | 1017.8 |
| 20260508082136 | 43 | 132 | 0.0 | 0.0 | 0.00 | 0.00 | 0.00 | 96 | 1017.8 |
| 20260508081633 | 44 | 132 | 0.0 | 0.0 | 0.00 | 0.00 | 0.00 | 96 | 1017.8 |
| 20260508081129 | 44 | 132 | 0.0 | 0.0 | 0.00 | 0.00 | 0.00 | 96 | 1017.8 |
| 20260508080627 | 44 | 132 | 0.0 | 0.0 | 0.00 | 0.00 | 0.00 | 96 | 1017.8 |
| 20260508080125 | 44 | 132 | 0.0 | 0.0 | 0.00 | 0.00 | 0.00 | 96 | 1017.8 |
| 20260508075621 | 44 | 132 | 0.0 | 0.0 | 0.00 | 0.00 | 0.00 | 96 | 1017.9 |
| 20260508075118 | 44 | 132 | 0.0 | 0.0 | 0.00 | 0.00 | 0.00 | 96 | 1017.7 |
| 20260508074616 | 44 | 132 | 0.0 | 0.0 | 0.00 | 0.00 | 0.00 | 96 | 1017.9 |
| 20260508074113 | 44 | 132 | 0.0 | 0.0 | 0.00 | 0.00 | 0.00 | 95 | 1018.1 |
| 20260508073610 | 44 | 132 | 0.0 | 0.0 | 0.00 | 0.00 | 0.00 | 95 | 1018.0 |
| 20260508073108 | 45 | 132 | 0.0 | 0.0 | 0.00 | 0.00 | 0.00 | 95 | 1018.0 |
| 20260508072602 | 45 | 132 | 0.0 | 0.0 | 0.00 | 0.00 | 0.00 | 95 | 1018.1 |
| 20260508072100 | 45 | 132 | 0.0 | 0.0 | 0.00 | 0.00 | 0.00 | 95 | 1017.9 |
| 20260508071558 | 45 | 132 | 0.0 | 0.0 | 0.00 | 0.00 | 0.00 | 95 | 1018.0 |
| 20260508071056 | 45 | 132 | 0.0 | 0.0 | 0.00 | 0.00 | 0.00 | 95 | 1017.9 |
| 20260508070553 | 45 | 132 | 0.0 | 0.0 | 0.00 | 0.00 | 0.00 | 95 | 1017.9 |
| 20260508070052 | 46 | 132 | 0.0 | 0.0 | 0.00 | 0.00 | 0.00 | 95 | 1017.9 |
| 20260508065548 | 46 | 132 | 0.0 | 0.0 | 0.00 | 0.00 | 0.00 | 95 | 1018.0 |
| 20260508065047 | 46 | 132 | 0.0 | 0.0 | 0.00 | 0.00 | 0.00 | 95 | 1018.0 |
| 20260508064544 | 46 | 132 | 0.0 | 0.0 | 0.00 | 0.00 | 0.00 | 95 | 1018.0 |
| 20260508064042 | 46 | 132 | 0.0 | 0.0 | 0.00 | 0.00 | 0.00 | 95 | 1017.9 |
| 20260508063539 | 46 | 132 | 0.0 | 0.0 | 0.00 | 0.00 | 0.00 | 95 | 1017.9 |
| 20260508063037 | 46 | 132 | 0.0 | 0.0 | 0.00 | 0.00 | 0.00 | 95 | 1018.0 |
| 20260508062534 | 46 | 132 | 0.0 | 0.0 | 0.00 | 0.00 | 0.00 | 95 | 1017.7 |
| 20260508062030 | 46 | 132 | 0.0 | 0.0 | 0.00 | 0.00 | 0.00 | 94 | 1017.9 |
| 20260508061529 | 46 | 132 | 0.0 | 0.0 | 0.00 | 0.00 | 0.00 | 94 | 1018.3 |
| 20260508061025 | 47 | 132 | 0.0 | 0.0 | 0.00 | 0.00 | 0.00 | 94 | 1018.1 |
| 20260508060522 | 47 | 132 | 0.0 | 0.0 | 0.00 | 0.00 | 0.00 | 94 | 1018.1 |
| 20260508060020 | 47 | 132 | 0.0 | 0.0 | 0.00 | 0.00 | 0.00 | 94 | 1018.1 |
| 20260508055515 | 47 | 132 | 0.0 | 0.0 | 0.00 | 0.00 | 0.00 | 94 | 1018.0 |
| 20260508055012 | 47 | 132 | 0.0 | 0.0 | 0.00 | 0.00 | 0.00 | 94 | 1018.0 |
| 20260508054508 | 48 | 132 | 0.0 | 0.0 | 0.00 | 0.00 | 0.00 | 94 | 1018.1 |
| 20260508054006 | 48 | 132 | 0.0 | 0.0 | 0.00 | 0.00 | 0.00 | 93 | 1018.0 |
| 20260508053502 | 48 | 132 | 0.0 | 0.0 | 0.00 | 0.00 | 0.00 | 93 | 1017.8 |
| 20260508053000 | 48 | 132 | 0.0 | 0.0 | 0.00 | 0.00 | 0.00 | 93 | 1018.1 |
| 20260508052458 | 48 | 132 | 0.0 | 0.0 | 0.00 | 0.00 | 0.00 | 93 | 1018.3 |
| 20260508051954 | 48 | 132 | 0.0 | 0.0 | 0.00 | 0.00 | 0.00 | 93 | 1018.1 |
| 20260508051449 | 47 | 132 | 0.0 | 0.0 | 0.00 | 0.00 | 0.00 | 92 | 1018.5 |
| 20260508050946 | 47 | 132 | 0.0 | 0.0 | 0.00 | 0.00 | 0.00 | 91 | 1018.3 |
| 20260508050442 | 47 | 132 | 0.0 | 0.0 | 0.00 | 0.00 | 0.00 | 91 | 1018.1 |
| 20260508045939 | 48 | 132 | 0.0 | 0.0 | 0.00 | 0.00 | 0.00 | 91 | 1018.3 |
| 20260508045436 | 48 | 132 | 0.0 | 0.0 | 0.00 | 0.00 | 0.00 | 90 | 1018.3 |
| 20260508044934 | 48 | 132 | 0.0 | 0.0 | 0.00 | 0.00 | 0.00 | 90 | 1017.9 |
| 20260508044431 | 48 | 132 | 0.0 | 0.0 | 0.00 | 0.00 | 0.00 | 90 | 1018.0 |
| 20260508043926 | 49 | 132 | 0.0 | 0.0 | 0.00 | 0.00 | 0.00 | 89 | 1018.1 |
| 20260508043424 | 49 | 132 | 0.0 | 0.0 | 0.00 | 0.00 | 0.00 | 88 | 1017.8 |
| 20260508042920 | 49 | 132 | 0.0 | 0.0 | 0.00 | 0.00 | 0.00 | 87 | 1017.8 |
| 20260508042418 | 50 | 132 | 0.0 | 0.0 | 0.00 | 0.00 | 0.00 | 85 | 1017.7 |
| 20260508041914 | 50 | 132 | 0.0 | 0.0 | 0.00 | 0.00 | 0.00 | 85 | 1017.9 |
| 20260508041411 | 50 | 132 | 0.0 | 0.0 | 0.00 | 0.00 | 0.00 | 84 | 1017.6 |
| 20260508040907 | 50 | 132 | 0.0 | 0.0 | 0.00 | 0.00 | 0.00 | 85 | 1017.5 |
| 20260508040405 | 50 | 132 | 0.0 | 0.0 | 0.00 | 0.00 | 0.00 | 85 | 1017.7 |
| 20260508035903 | 50 | 132 | 0.0 | 0.0 | 0.00 | 0.14 | 0.14 | 86 | 1017.6 |
| 20260508035359 | 51 | 132 | 0.0 | 0.0 | 0.00 | 0.14 | 0.14 | 85 | 1017.3 |
| 20260508034856 | 51 | 132 | 0.0 | 0.0 | 0.00 | 0.14 | 0.14 | 84 | 1017.4 |
| 20260508034354 | 52 | 132 | 0.0 | 0.0 | 0.00 | 0.14 | 0.14 | 82 | 1017.5 |
| 20260508033850 | 52 | 132 | 0.0 | 0.0 | 0.00 | 0.14 | 0.14 | 83 | 1017.5 |
| 20260508033348 | 53 | 132 | 0.0 | 0.0 | 0.00 | 0.14 | 0.14 | 81 | 1017.5 |
| 20260508032845 | 53 | 132 | 0.0 | 0.9 | 0.00 | 0.14 | 0.14 | 80 | 1017.4 |
| 20260508032343 | 53 | 132 | 0.0 | 0.9 | 0.00 | 0.14 | 0.14 | 79 | 1017.6 |
| 20260508031839 | 53 | 130 | 0.0 | 0.0 | 0.00 | 0.14 | 0.14 | 82 | 1017.5 |
| 20260508031336 | 53 | 130 | 0.0 | 0.0 | 0.00 | 0.14 | 0.14 | 83 | 1017.4 |
| 20260508030832 | 53 | 131 | 0.0 | 0.9 | 0.00 | 0.14 | 0.14 | 84 | 1017.4 |
| 20260508030330 | 53 | 127 | 0.0 | 0.0 | 0.00 | 0.14 | 0.14 | 82 | 1017.2 |
| 20260508025826 | 53 | 127 | 0.0 | 0.0 | 0.00 | 0.14 | 0.14 | 83 | 1017.0 |
| 20260508025323 | 53 | 112 | 0.0 | 0.9 | 0.00 | 0.14 | 0.14 | 82 | 1017.4 |
| 20260508024820 | 53 | 112 | 0.0 | 0.0 | 0.00 | 0.14 | 0.14 | 84 | 1017.4 |
| 20260508024317 | 54 | 112 | 0.0 | 0.9 | 0.00 | 0.14 | 0.14 | 84 | 1017.3 |
| 20260508023814 | 54 | 109 | 0.0 | 0.9 | 0.00 | 0.14 | 0.14 | 83 | 1017.3 |
| 20260508023310 | 55 | 108 | 0.0 | 0.0 | 0.00 | 0.14 | 0.14 | 85 | 1017.5 |
| 20260508022807 | 55 | 107 | 0.0 | 0.9 | 0.00 | 0.14 | 0.14 | 84 | 1017.3 |
| 20260508022306 | 55 | 90 | 0.0 | 0.9 | 0.00 | 0.14 | 0.14 | 84 | 1017.3 |
| 20260508021800 | 55 | 140 | 0.0 | 0.0 | 0.00 | 0.14 | 0.14 | 83 | 1017.3 |
| 20260508021256 | 55 | 141 | 0.0 | 0.0 | 0.00 | 0.14 | 0.14 | 82 | 1017.4 |
| 20260508020752 | 55 | 142 | 0.0 | 0.0 | 0.00 | 0.14 | 0.14 | 86 | 1017.2 |
| 20260508020250 | 56 | 130 | 0.0 | 0.0 | 0.00 | 0.14 | 0.14 | 89 | 1016.9 |
| 20260508015747 | 56 | 92 | 0.0 | 0.0 | 0.00 | 0.14 | 0.14 | 91 | 1016.9 |
| 20260508015244 | 56 | 85 | 0.0 | 0.9 | 0.00 | 0.14 | 0.14 | 91 | 1016.9 |
| 20260508014741 | 56 | 84 | 0.0 | 0.9 | 0.00 | 0.14 | 0.14 | 90 | 1016.4 |
| 20260508014238 | 56 | 147 | 0.0 | 0.0 | 0.00 | 0.14 | 0.14 | 90 | 1016.5 |
| 20260508013733 | 56 | 147 | 0.0 | 0.9 | 0.00 | 0.14 | 0.14 | 90 | 1016.5 |
| 20260508013230 | 56 | 142 | 0.0 | 0.0 | 0.00 | 0.14 | 0.14 | 90 | 1016.6 |
| 20260508012728 | 56 | 142 | 0.0 | 0.0 | 0.00 | 0.14 | 0.14 | 90 | 1016.3 |
| 20260508012224 | 56 | 142 | 0.0 | 0.9 | 0.00 | 0.14 | 0.14 | 90 | 1016.5 |
| 20260508011722 | 56 | 139 | 0.0 | 0.0 | 0.00 | 0.14 | 0.14 | 89 | 1016.4 |
| 20260508011220 | 56 | 139 | 0.0 | 0.0 | 0.00 | 0.14 | 0.14 | 89 | 1016.1 |
| 20260508010716 | 57 | 138 | 0.0 | 0.0 | 0.00 | 0.14 | 0.14 | 88 | 1016.0 |
| 20260508010215 | 57 | 139 | 0.0 | 0.0 | 0.00 | 0.14 | 0.14 | 88 | 1015.8 |
| 20260508005711 | 57 | 139 | 0.0 | 0.0 | 0.00 | 0.14 | 0.14 | 89 | 1015.8 |
| 20260508005208 | 57 | 139 | 0.0 | 0.0 | 0.00 | 0.14 | 0.14 | 88 | 1016.1 |
| 20260508004704 | 57 | 139 | 0.0 | 0.0 | 0.00 | 0.14 | 0.14 | 88 | 1015.8 |
| 20260508004200 | 57 | 139 | 0.0 | 0.0 | 0.00 | 0.14 | 0.14 | 87 | 1015.7 |
| 20260508003657 | 57 | 139 | 0.0 | 0.0 | 0.00 | 0.14 | 0.14 | 86 | 1015.7 |
| 20260508003154 | 57 | 139 | 0.0 | 0.0 | 0.00 | 0.14 | 0.14 | 85 | 1015.5 |
| 20260508002650 | 58 | 140 | 0.0 | 0.9 | 0.00 | 0.14 | 0.14 | 83 | 1015.5 |
| 20260508002149 | 58 | 139 | 0.0 | 0.0 | 0.00 | 0.14 | 0.14 | 82 | 1015.3 |
| 20260508001643 | 58 | 139 | 0.0 | 0.0 | 0.00 | 0.14 | 0.14 | 82 | 1015.3 |
| 20260508001140 | 59 | 139 | 0.0 | 0.0 | 0.00 | 0.14 | 0.14 | 81 | 1015.5 |
| 20260508000636 | 59 | 139 | 0.0 | 0.0 | 0.00 | 0.14 | 0.14 | 81 | 1015.1 |
| 20260508000133 | 60 | 139 | 0.0 | 0.0 | 0.00 | 0.14 | 0.14 | 81 | 1015.0 |
| 20260507235630 | 60 | 139 | 0.0 | 0.0 | 0.00 | 0.14 | 0.14 | 80 | 1015.1 |
| 20260507235127 | 60 | 139 | 0.0 | 0.0 | 0.00 | 0.14 | 0.14 | 78 | 1015.1 |
| 20260507234624 | 60 | 139 | 0.0 | 0.0 | 0.00 | 0.14 | 0.14 | 78 | 1015.1 |
| 20260507234120 | 61 | 140 | 0.0 | 0.9 | 0.00 | 0.14 | 0.14 | 77 | 1015.1 |
| 20260507233617 | 61 | 133 | 0.0 | 0.9 | 0.00 | 0.14 | 0.14 | 75 | 1015.2 |
| 20260507233116 | 62 | 128 | 0.0 | 0.0 | 0.00 | 0.14 | 0.14 | 75 | 1015.0 |
| 20260507232612 | 62 | 156 | 0.0 | 0.0 | 0.00 | 0.14 | 0.14 | 75 | 1015.1 |
| 20260507232109 | 62 | 156 | 0.0 | 0.0 | 0.00 | 0.14 | 0.14 | 73 | 1015.3 |
| 20260507231605 | 62 | 157 | 0.0 | 0.0 | 0.00 | 0.14 | 0.14 | 72 | 1015.2 |
| 20260507231103 | 63 | 157 | 0.0 | 0.9 | 0.00 | 0.14 | 0.14 | 71 | 1015.1 |
| 20260507230559 | 63 | 149 | 0.9 | 0.9 | 0.00 | 0.14 | 0.14 | 68 | 1015.3 |
| 20260507230056 | 64 | 141 | 0.0 | 0.9 | 0.00 | 0.14 | 0.14 | 66 | 1015.4 |
| 20260507225551 | 64 | 137 | 0.0 | 0.9 | 0.00 | 0.14 | 0.14 | 61 | 1015.4 |
| 20260507225048 | 64 | 166 | 0.9 | 0.9 | 0.00 | 0.14 | 0.14 | 64 | 1015.3 |
| 20260507224543 | 64 | 92 | 0.0 | 0.0 | 0.00 | 0.14 | 0.14 | 65 | 1015.2 |
| 20260507224040 | 64 | 91 | 0.0 | 0.0 | 0.00 | 0.14 | 0.14 | 63 | 1015.4 |
| 20260507223536 | 64 | 91 | 0.0 | 0.0 | 0.00 | 0.14 | 0.14 | 62 | 1015.4 |
| 20260507223033 | 64 | 91 | 0.0 | 0.0 | 0.00 | 0.14 | 0.14 | 62 | 1015.4 |
| 20260507222530 | 64 | 91 | 0.0 | 0.0 | 0.00 | 0.14 | 0.14 | 62 | 1015.4 |
| 20260507222027 | 64 | 91 | 0.0 | 0.9 | 0.00 | 0.14 | 0.14 | 62 | 1015.5 |
| 20260507221523 | 64 | 92 | 0.0 | 0.9 | 0.00 | 0.14 | 0.14 | 59 | 1015.4 |
| 20260507221020 | 64 | 95 | 0.0 | 0.9 | 0.00 | 0.14 | 0.14 | 61 | 1015.4 |
| 20260507220517 | 65 | 134 | 0.0 | 0.0 | 0.00 | 0.14 | 0.14 | 61 | 1015.4 |
| 20260507220015 | 66 | 106 | 0.0 | 0.0 | 0.00 | 0.14 | 0.14 | 64 | 1015.4 |
| 20260507215510 | 66 | 113 | 0.0 | 0.9 | 0.00 | 0.14 | 0.14 | 59 | 1015.2 |
| 20260507215009 | 67 | 146 | 0.9 | 1.7 | 0.00 | 0.14 | 0.14 | 58 | 1015.2 |
| 20260507214505 | 66 | 188 | 0.0 | 0.9 | 0.00 | 0.14 | 0.14 | 58 | 1015.2 |